#Datum;Uhrzeit;WR;Pac;DaySum;Status;WR;Pac;DaySum;Status;Pdc1;Udc;Temp;WR;Pac;DaySum;Status;Pdc1;Udc;Temp;WR;Pac;DaySum;Status;Pdc1;Udc;Temp;WR;Pac;DaySum;Status;Pdc1;Pdc2;Udc1;Udc2;Temp;WR;Pac;DaySum;Status;Pdc1;Pdc2;Udc1;Udc2;Temp;WR;Pac;DaySum;Status;Pdc1;Udc;Temp;WR;Pac;DaySum;Status;Pdc1;Udc;Temp;WR;Pac;DaySum;Status;Pdc1;Udc;Temp
10.03.21;23:55:00;1;356;20115;0;2;0;11930;0;0;0;0;3;0;7184;0;0;0;0;4;0;10212;0;0;0;0;5;0;0;0;0;0;0;0;0;6;0;15578;0;0;0;0;0;0;7;0;14132;0;0;0;0;8;0;14013;0;0;0;0;9;0;7402;0;0;0;0
10.03.21;23:50:00;1;338;20085;0;2;0;11930;0;0;0;0;3;0;7184;0;0;0;0;4;0;10212;0;0;0;0;5;0;0;0;0;0;0;0;0;6;0;15578;0;0;0;0;0;0;7;0;14132;0;0;0;0;8;0;14013;0;0;0;0;9;0;7402;0;0;0;0
10.03.21;23:45:00;1;339;20057;0;2;0;11930;0;0;0;0;3;0;7184;0;0;0;0;4;0;10212;0;0;0;0;5;0;0;0;0;0;0;0;0;6;0;15578;0;0;0;0;0;0;7;0;14132;0;0;0;0;8;0;14013;0;0;0;0;9;0;7402;0;0;0;0
10.03.21;23:40:00;1;360;20029;0;2;0;11930;0;0;0;0;3;0;7184;0;0;0;0;4;0;10212;0;0;0;0;5;0;0;0;0;0;0;0;0;6;0;15578;0;0;0;0;0;0;7;0;14132;0;0;0;0;8;0;14013;0;0;0;0;9;0;7402;0;0;0;0
10.03.21;23:35:00;1;400;19999;0;2;0;11930;0;0;0;0;3;0;7184;0;0;0;0;4;0;10212;0;0;0;0;5;0;0;0;0;0;0;0;0;6;0;15578;0;0;0;0;0;0;7;0;14132;0;0;0;0;8;0;14013;0;0;0;0;9;0;7402;0;0;0;0
10.03.21;23:30:00;1;383;19965;0;2;0;11930;0;0;0;0;3;0;7184;0;0;0;0;4;0;10212;0;0;0;0;5;0;0;0;0;0;0;0;0;6;0;15578;0;0;0;0;0;0;7;0;14132;0;0;0;0;8;0;14013;0;0;0;0;9;0;7402;0;0;0;0
10.03.21;23:25:00;1;384;19933;0;2;0;11930;0;0;0;0;3;0;7184;0;0;0;0;4;0;10212;0;0;0;0;5;0;0;0;0;0;0;0;0;6;0;15578;0;0;0;0;0;0;7;0;14132;0;0;0;0;8;0;14013;0;0;0;0;9;0;7402;0;0;0;0
10.03.21;23:20:00;1;494;19901;0;2;0;11930;0;0;0;0;3;0;7184;0;0;0;0;4;0;10212;0;0;0;0;5;0;0;0;0;0;0;0;0;6;0;15578;0;0;0;0;0;0;7;0;14132;0;0;0;0;8;0;14013;0;0;0;0;9;0;7402;0;0;0;0
10.03.21;23:15:00;1;415;19867;0;2;0;11930;0;0;0;0;3;0;7184;0;0;0;0;4;0;10212;0;0;0;0;5;0;0;0;0;0;0;0;0;6;0;15578;0;0;0;0;0;0;7;0;14132;0;0;0;0;8;0;14013;0;0;0;0;9;0;7402;0;0;0;0
10.03.21;23:10:00;1;388;19833;0;2;0;11930;0;0;0;0;3;0;7184;0;0;0;0;4;0;10212;0;0;0;0;5;0;0;0;0;0;0;0;0;6;0;15578;0;0;0;0;0;0;7;0;14132;0;0;0;0;8;0;14013;0;0;0;0;9;0;7402;0;0;0;0
10.03.21;23:05:00;1;403;19802;0;2;0;11930;0;0;0;0;3;0;7184;0;0;0;0;4;0;10212;0;0;0;0;5;0;0;0;0;0;0;0;0;6;0;15578;0;0;0;0;0;0;7;0;14132;0;0;0;0;8;0;14013;0;0;0;0;9;0;7402;0;0;0;0
10.03.21;23:00:00;1;423;19767;0;2;0;11930;0;0;0;0;3;0;7184;0;0;0;0;4;0;10212;0;0;0;0;5;0;0;0;0;0;0;0;0;6;0;15578;0;0;0;0;0;0;7;0;14132;0;0;0;0;8;0;14013;0;0;0;0;9;0;7402;0;0;0;0
10.03.21;22:55:00;1;425;19732;0;2;0;11930;0;0;0;0;3;0;7184;0;0;0;0;4;0;10212;0;0;0;0;5;0;0;0;0;0;0;0;0;6;0;15578;2;0;0;0;0;0;7;0;14132;0;0;0;0;8;0;14013;0;0;0;0;9;0;7402;0;0;0;0
10.03.21;22:50:00;1;498;19697;0;2;0;11930;0;0;0;0;3;0;7184;0;0;0;0;4;0;10212;0;0;0;0;5;0;0;0;0;0;0;0;0;6;0;15578;2;0;0;0;0;0;7;0;14132;0;0;0;0;8;0;14013;0;0;0;0;9;0;7402;0;0;0;0
10.03.21;22:45:00;1;498;19655;0;2;0;11930;0;0;0;0;3;0;7184;0;0;0;0;4;0;10212;0;0;0;0;5;0;0;0;0;0;0;0;0;6;0;15578;2;0;0;0;0;0;7;0;14132;0;0;0;0;8;0;14013;0;0;0;0;9;0;7402;0;0;0;0
10.03.21;22:40:00;1;593;19613;0;2;0;11930;0;0;0;0;3;0;7184;0;0;0;0;4;0;10212;0;0;0;0;5;0;0;0;0;0;0;0;0;6;0;15578;2;0;0;0;0;0;7;0;14132;0;0;0;0;8;0;14013;0;0;0;0;9;0;7402;0;0;0;0
10.03.21;22:35:00;1;597;19564;0;2;0;11930;0;0;0;0;3;0;7184;0;0;0;0;4;0;10212;0;0;0;0;5;0;0;0;0;0;0;0;0;6;0;15578;2;0;0;0;0;0;7;0;14132;0;0;0;0;8;0;14013;0;0;0;0;9;0;7402;0;0;0;0
10.03.21;22:30:00;1;462;19515;0;2;0;11930;0;0;0;0;3;0;7184;0;0;0;0;4;0;10212;0;0;0;0;5;0;0;0;0;0;0;0;0;6;0;15578;2;0;0;0;0;0;7;0;14132;0;0;0;0;8;0;14013;0;0;0;0;9;0;7402;0;0;0;0
10.03.21;22:25:00;1;451;19476;0;2;0;11930;0;0;0;0;3;0;7184;0;0;0;0;4;0;10212;0;0;0;0;5;0;0;0;0;0;0;0;0;6;0;15578;2;0;0;0;0;0;7;0;14132;0;0;0;0;8;0;14013;0;0;0;0;9;0;7402;0;0;0;0
10.03.21;22:20:00;1;437;19438;0;2;0;11930;0;0;0;0;3;0;7184;0;0;0;0;4;0;10212;0;0;0;0;5;0;0;0;0;0;0;0;0;6;0;15578;2;0;0;0;0;0;7;0;14132;0;0;0;0;8;0;14013;0;0;0;0;9;0;7402;0;0;0;0
10.03.21;22:15:00;1;416;19401;0;2;0;11930;0;0;0;0;3;0;7184;0;0;0;0;4;0;10212;0;0;0;0;5;0;0;0;0;0;0;0;0;6;0;15578;2;0;0;0;0;0;7;0;14132;0;0;0;0;8;0;14013;0;0;0;0;9;0;7402;0;0;0;0
10.03.21;22:10:00;1;588;19366;0;2;0;11930;0;0;0;0;3;0;7184;0;0;0;0;4;0;10212;0;0;0;0;5;0;0;0;0;0;0;0;0;6;0;15578;2;0;0;0;0;0;7;0;14132;0;0;0;0;8;0;14013;0;0;0;0;9;0;7402;0;0;0;0
10.03.21;22:05:00;1;571;19318;0;2;0;11930;0;0;0;0;3;0;7184;0;0;0;0;4;0;10212;0;0;0;0;5;0;0;0;0;0;0;0;0;6;0;15578;2;0;0;0;0;0;7;0;14132;0;0;0;0;8;0;14013;0;0;0;0;9;0;7402;0;0;0;0
10.03.21;22:00:00;1;548;19270;0;2;0;11930;0;0;0;0;3;0;7184;0;0;0;0;4;0;10212;0;0;0;0;5;0;0;0;0;0;0;0;0;6;0;15578;2;0;0;0;0;0;7;0;14132;0;0;0;0;8;0;14013;0;0;0;0;9;0;7402;0;0;0;0
10.03.21;21:55:00;1;582;19224;0;2;0;11930;0;0;0;0;3;0;7184;0;0;0;0;4;0;10212;0;0;0;0;5;0;0;0;0;0;0;0;0;6;0;15578;2;0;0;0;0;0;7;0;14132;0;0;0;0;8;0;14013;0;0;0;0;9;0;7402;0;0;0;0
10.03.21;21:50:00;1;620;19175;0;2;0;11930;0;0;0;0;3;0;7184;0;0;0;0;4;0;10212;0;0;0;0;5;0;0;0;0;0;0;0;0;6;0;15578;2;0;0;0;0;0;7;0;14132;0;0;0;0;8;0;14013;0;0;0;0;9;0;7402;0;0;0;0
10.03.21;21:45:00;1;632;19123;0;2;0;11930;0;0;0;0;3;0;7184;0;0;0;0;4;0;10212;0;0;0;0;5;0;0;0;0;0;0;0;0;6;0;15578;2;0;0;0;0;0;7;0;14132;0;0;0;0;8;0;14013;0;0;0;0;9;0;7402;0;0;0;0
10.03.21;21:40:00;1;675;19071;0;2;0;11930;0;0;0;0;3;0;7184;0;0;0;0;4;0;10212;0;0;0;0;5;0;0;0;0;0;0;0;0;6;0;15578;2;0;0;0;0;0;7;0;14132;0;0;0;0;8;0;14013;0;0;0;0;9;0;7402;0;0;0;0
10.03.21;21:35:00;1;715;19014;0;2;0;11930;0;0;0;0;3;0;7184;0;0;0;0;4;0;10212;0;0;0;0;5;0;0;0;0;0;0;0;0;6;0;15578;2;0;0;0;0;0;7;0;14132;0;0;0;0;8;0;14013;0;0;0;0;9;0;7402;0;0;0;0
10.03.21;21:30:00;1;650;18958;0;2;0;11930;0;0;0;0;3;0;7184;0;0;0;0;4;0;10212;0;0;0;0;5;0;0;0;0;0;0;0;0;6;0;15578;2;0;0;0;0;0;7;0;14132;0;0;0;0;8;0;14013;0;0;0;0;9;0;7402;0;0;0;0
10.03.21;21:25:00;1;653;18903;0;2;0;11930;0;0;0;0;3;0;7184;0;0;0;0;4;0;10212;0;0;0;0;5;0;0;0;0;0;0;0;0;6;0;15578;2;0;0;0;0;0;7;0;14132;0;0;0;0;8;0;14013;0;0;0;0;9;0;7402;0;0;0;0
10.03.21;21:20:00;1;603;18849;0;2;0;11930;0;0;0;0;3;0;7184;0;0;0;0;4;0;10212;0;0;0;0;5;0;0;0;0;0;0;0;0;6;0;15578;2;0;0;0;0;0;7;0;14132;0;0;0;0;8;0;14013;0;0;0;0;9;0;7402;0;0;0;0
10.03.21;21:15:00;1;576;18798;0;2;0;11930;0;0;0;0;3;0;7184;0;0;0;0;4;0;10212;0;0;0;0;5;0;0;0;0;0;0;0;0;6;0;15578;2;0;0;0;0;0;7;0;14132;0;0;0;0;8;0;14013;0;0;0;0;9;0;7402;0;0;0;0
10.03.21;21:10:00;1;615;18749;0;2;0;11930;0;0;0;0;3;0;7184;0;0;0;0;4;0;10212;0;0;0;0;5;0;0;0;0;0;0;0;0;6;0;15578;2;0;0;0;0;0;7;0;14132;0;0;0;0;8;0;14013;0;0;0;0;9;0;7402;0;0;0;0
10.03.21;21:05:00;1;621;18698;0;2;0;11930;0;0;0;0;3;0;7184;0;0;0;0;4;0;10212;0;0;0;0;5;0;0;0;0;0;0;0;0;6;0;15578;2;0;0;0;0;0;7;0;14132;0;0;0;0;8;0;14013;0;0;0;0;9;0;7402;0;0;0;0
10.03.21;21:00:00;1;903;18632;0;2;0;11930;0;0;0;0;3;0;7184;0;0;0;0;4;0;10212;0;0;0;0;5;0;0;0;0;0;0;0;0;6;0;15578;2;0;0;0;0;0;7;0;14132;0;0;0;0;8;0;14013;0;0;0;0;9;0;7402;0;0;0;0
10.03.21;20:55:00;1;591;18548;0;2;0;11930;0;0;0;0;3;0;7184;0;0;0;0;4;0;10212;0;0;0;0;5;0;0;0;0;0;0;0;0;6;0;15578;2;0;0;0;0;0;7;0;14132;0;0;0;0;8;0;14013;0;0;0;0;9;0;7402;0;0;0;0
10.03.21;20:50:00;1;561;18498;0;2;0;11930;0;0;0;0;3;0;7184;0;0;0;0;4;0;10212;0;0;0;0;5;0;0;0;0;0;0;0;0;6;0;15578;2;0;0;0;0;0;7;0;14132;0;0;0;0;8;0;14013;0;0;0;0;9;0;7402;0;0;0;0
10.03.21;20:45:00;1;522;18451;0;2;0;11930;0;0;0;0;3;0;7184;0;0;0;0;4;0;10212;0;0;0;0;5;0;0;0;0;0;0;0;0;6;0;15578;2;0;0;0;0;0;7;0;14132;0;0;0;0;8;0;14013;0;0;0;0;9;0;7402;0;0;0;0
10.03.21;20:40:00;1;573;18407;0;2;0;11930;0;0;0;0;3;0;7184;0;0;0;0;4;0;10212;0;0;0;0;5;0;0;0;0;0;0;0;0;6;0;15578;2;0;0;0;0;0;7;0;14132;0;0;0;0;8;0;14013;0;0;0;0;9;0;7402;0;0;0;0
10.03.21;20:35:00;1;522;18360;0;2;0;11930;0;0;0;0;3;0;7184;0;0;0;0;4;0;10212;0;0;0;0;5;0;0;0;0;0;0;0;0;6;0;15578;2;0;0;0;0;0;7;0;14132;0;0;0;0;8;0;14013;0;0;0;0;9;0;7402;0;0;0;0
10.03.21;20:30:00;1;517;18316;0;2;0;11930;0;0;0;0;3;0;7184;0;0;0;0;4;0;10212;0;0;0;0;5;0;0;0;0;0;0;0;0;6;0;15578;2;0;0;0;0;0;7;0;14132;0;0;0;0;8;0;14013;0;0;0;0;9;0;7402;0;0;0;0
10.03.21;20:25:00;1;529;18272;0;2;0;11930;0;0;0;0;3;0;7184;0;0;0;0;4;0;10212;0;0;0;0;5;0;0;0;0;0;0;0;0;6;0;15578;2;0;0;0;0;0;7;0;14132;0;0;0;0;8;0;14013;0;0;0;0;9;0;7402;0;0;0;0
10.03.21;20:20:00;1;599;18227;0;2;0;11930;0;0;0;0;3;0;7184;0;0;0;0;4;0;10212;0;0;0;0;5;0;0;0;0;0;0;0;0;6;0;15578;2;0;0;0;0;0;7;0;14132;0;0;0;0;8;0;14013;0;0;0;0;9;0;7402;0;0;0;0
10.03.21;20:15:00;1;716;18176;0;2;0;11930;0;0;0;0;3;0;7184;0;0;0;0;4;0;10212;0;0;0;0;5;0;0;0;0;0;0;0;0;6;0;15578;2;0;0;0;0;0;7;0;14132;0;0;0;0;8;0;14013;0;0;0;0;9;0;7402;0;0;0;0
10.03.21;20:10:00;1;727;18116;0;2;0;11930;0;0;0;0;3;0;7184;0;0;0;0;4;0;10212;0;0;0;0;5;0;0;0;0;0;0;0;0;6;0;15578;2;0;0;0;0;0;7;0;14132;0;0;0;0;8;0;14013;0;0;0;0;9;0;7402;0;0;0;0
10.03.21;20:05:00;1;746;18055;0;2;0;11930;0;0;0;0;3;0;7184;0;0;0;0;4;0;10212;0;0;0;0;5;0;0;0;0;0;0;0;0;6;0;15578;2;0;0;0;0;0;7;0;14132;0;0;0;0;8;0;14013;0;0;0;0;9;0;7402;0;0;0;0
10.03.21;20:00:00;1;676;17993;0;2;0;11930;0;0;0;0;3;0;7184;0;0;0;0;4;0;10212;0;0;0;0;5;0;0;0;0;0;0;0;0;6;0;15578;2;0;0;0;0;0;7;0;14132;0;0;0;0;8;0;14013;0;0;0;0;9;0;7402;0;0;0;0
10.03.21;19:55:00;1;596;17937;0;2;0;11930;0;0;0;0;3;0;7184;0;0;0;0;4;0;10212;0;0;0;0;5;0;0;0;0;0;0;0;0;6;0;15578;2;0;0;0;0;0;7;0;14132;0;0;0;0;8;0;14013;0;0;0;0;9;0;7402;0;0;0;0
10.03.21;19:50:00;1;513;17887;0;2;0;11930;0;0;0;0;3;0;7184;0;0;0;0;4;0;10212;0;0;0;0;5;0;0;0;0;0;0;0;0;6;0;15578;2;0;0;0;0;0;7;0;14132;0;0;0;0;8;0;14013;0;0;0;0;9;0;7402;0;0;0;0
10.03.21;19:45:00;1;507;17843;0;2;0;11930;0;0;0;0;3;0;7184;0;0;0;0;4;0;10212;0;0;0;0;5;0;0;0;0;0;0;0;0;6;0;15578;2;0;0;0;0;0;7;0;14132;0;0;0;0;8;0;14013;0;0;0;0;9;0;7402;0;0;0;0
10.03.21;19:40:00;1;599;17801;0;2;0;11930;0;0;0;0;3;0;7184;0;0;0;0;4;0;10212;0;0;0;0;5;0;0;0;0;0;0;0;0;6;0;15578;2;0;0;0;0;0;7;0;14132;0;0;0;0;8;0;14013;0;0;0;0;9;0;7402;0;0;0;0
10.03.21;19:35:00;1;571;17754;0;2;0;11930;0;0;0;0;3;0;7184;0;0;0;0;4;0;10212;0;0;0;0;5;0;0;0;0;0;0;0;0;6;0;15578;0;0;0;0;0;0;7;0;14132;0;0;0;0;8;0;14013;0;0;0;0;9;0;7402;0;0;0;0
10.03.21;19:30:00;1;509;17710;0;2;0;11930;0;0;0;0;3;0;7184;0;0;0;0;4;0;10212;0;0;0;0;5;0;0;0;0;0;0;0;0;6;0;15578;2;0;0;0;0;0;7;0;14132;0;0;0;0;8;0;14013;0;0;0;0;9;0;7402;0;0;0;0
10.03.21;19:25:00;1;488;17667;0;2;0;11930;0;0;0;0;3;0;7184;0;0;0;0;4;0;10212;0;0;0;0;5;0;0;0;0;0;0;0;0;6;0;15578;2;0;0;0;0;0;7;0;14132;0;0;0;0;8;0;14013;0;0;0;0;9;0;7402;0;0;0;0
10.03.21;19:20:00;1;501;17625;0;2;0;11930;0;0;0;0;3;0;7184;0;0;0;0;4;0;10212;0;0;0;0;5;0;0;0;0;0;0;0;0;6;0;15578;2;0;0;0;0;0;7;0;14132;0;0;0;0;8;0;14013;0;0;0;0;9;0;7402;0;0;0;0
10.03.21;19:15:00;1;541;17584;0;2;0;11930;0;0;0;0;3;0;7184;0;0;0;0;4;0;10212;0;0;0;0;5;0;0;0;0;0;0;0;0;6;0;15578;2;0;0;0;0;0;7;0;14132;0;0;0;0;8;0;14013;0;0;0;0;9;0;7402;0;0;0;0
10.03.21;19:10:00;1;600;17539;0;2;0;11930;0;0;0;0;3;0;7184;0;0;0;0;4;0;10212;0;0;0;0;5;0;0;0;0;0;0;0;0;6;0;15578;2;0;0;0;0;0;7;0;14132;0;0;0;0;8;0;14013;0;0;0;0;9;0;7402;0;0;0;0
10.03.21;19:05:00;1;573;17488;0;2;0;11930;0;0;0;0;3;0;7184;0;0;0;0;4;0;10212;0;0;0;0;5;0;0;0;0;0;0;0;0;6;0;15578;2;0;0;0;0;0;7;0;14132;0;0;0;0;8;0;14013;0;0;0;0;9;0;7402;0;0;0;0
10.03.21;19:00:00;1;493;17441;0;2;0;11930;0;0;0;0;3;0;7184;0;0;0;0;4;0;10212;0;0;0;0;5;0;0;0;0;0;0;0;0;6;0;15578;2;0;0;0;0;0;7;0;14132;0;0;0;0;8;0;14013;0;0;0;0;9;0;7402;0;0;0;0
10.03.21;18:55:00;1;468;17400;0;2;0;11930;0;0;0;0;3;0;7184;0;0;0;0;4;0;10212;0;0;0;0;5;0;0;0;0;0;0;0;0;6;0;15578;2;0;0;0;0;0;7;0;14132;0;0;0;0;8;0;14013;0;0;0;0;9;0;7402;0;0;0;0
10.03.21;18:50:00;1;519;17360;0;2;0;11930;0;0;0;0;3;0;7184;0;0;0;0;4;0;10212;0;0;0;0;5;0;0;0;0;0;0;0;0;6;0;15578;2;0;0;0;0;0;7;0;14132;0;0;0;0;8;0;14013;0;0;0;0;9;0;7402;0;0;0;0
10.03.21;18:45:00;1;553;17316;0;2;0;11930;0;0;0;0;3;0;7184;0;0;0;0;4;0;10212;0;0;0;0;5;0;0;0;0;0;0;0;0;6;0;15578;2;0;0;0;0;0;7;0;14132;0;0;0;0;8;0;14013;0;0;0;0;9;0;7402;0;0;0;0
10.03.21;18:40:00;1;627;17269;0;2;0;11930;0;0;0;0;3;0;7184;0;0;0;0;4;0;10212;0;0;0;0;5;0;0;0;0;0;0;0;0;6;0;15578;2;0;0;0;0;0;7;0;14132;0;0;0;0;8;0;14013;0;0;0;0;9;0;7402;0;0;0;0
10.03.21;18:35:00;1;608;17217;0;2;0;11930;0;0;0;0;3;0;7184;0;0;0;0;4;0;10212;0;0;0;0;5;0;0;0;0;0;0;0;0;6;0;15578;2;0;0;0;0;0;7;0;14132;0;0;0;0;8;0;14013;0;0;0;0;9;0;7402;0;0;0;0
10.03.21;18:30:00;1;466;17164;0;2;0;11930;0;0;0;0;3;0;7184;0;0;0;0;4;0;10212;0;0;0;0;5;0;0;0;0;0;0;0;0;6;0;15578;2;0;0;0;0;0;7;0;14132;0;0;0;0;8;0;14013;0;0;0;0;9;0;7402;0;0;0;0
10.03.21;18:25:00;1;517;17124;0;2;0;11930;0;0;0;0;3;0;7184;0;0;112;6;4;0;10212;0;0;0;0;5;0;0;0;0;0;0;0;0;6;0;15578;2;0;0;0;0;0;7;0;14132;0;0;0;0;8;0;14013;0;0;0;0;9;0;7402;0;0;0;0
10.03.21;18:20:00;1;687;17080;0;2;0;11930;6;0;291;13;3;0;7184;6;0;326;16;4;0;10212;0;0;7;1;5;0;0;0;0;0;0;0;0;6;0;15578;2;0;0;0;0;0;7;0;14132;0;0;0;0;8;0;14013;0;0;0;0;9;0;7402;0;0;0;0
10.03.21;18:15:00;1;745;17024;0;2;0;11930;6;0;338;14;3;0;7184;6;0;412;16;4;0;10212;2;0;80;15;5;0;0;0;0;0;0;0;0;6;0;15578;2;2;0;59;101;8;7;0;14132;0;0;0;0;8;0;14013;0;0;0;0;9;0;7402;0;0;0;0
10.03.21;18:10:00;1;757;16964;0;2;0;11930;6;0;373;14;3;0;7184;4;2;437;16;4;0;10212;1;0;129;15;5;0;0;0;0;0;0;0;0;6;0;15578;23;4;4;341;359;24;7;0;14132;0;0;233;15;8;0;14013;0;0;242;14;9;0;7402;6;0;292;13
10.03.21;18:05:00;1;653;16905;0;2;0;11930;6;0;395;15;3;1;7184;6;3;480;17;4;0;10212;1;0;176;16;5;0;0;0;0;0;0;0;0;6;0;15578;23;1;6;448;311;25;7;0;14132;6;0;355;18;8;0;14013;6;0;362;17;9;0;7402;6;0;382;13
10.03.21;18:00:00;1;623;16855;0;2;0;11930;6;0;411;15;3;1;7184;6;4;500;17;4;0;10212;1;0;210;17;5;0;0;0;0;0;0;0;0;6;0;15578;23;8;2;394;587;25;7;0;14132;6;3;399;18;8;0;14013;6;1;414;18;9;0;7402;4;2;433;14
10.03.21;17:55:00;1;412;16805;0;2;2;11930;6;8;410;16;3;0;7184;6;5;515;17;4;0;10212;3;0;230;17;5;0;0;0;0;0;0;0;0;6;42;15578;1;18;28;486;460;26;7;3;14132;6;7;426;19;8;0;14013;6;3;443;18;9;2;7402;3;5;470;14
10.03.21;17:50:00;1;384;16771;0;2;36;11930;6;62;367;16;3;1;7184;6;6;529;18;4;1;10212;3;1;199;18;5;0;0;0;0;0;0;0;0;6;72;15574;4;38;44;461;433;26;7;3;14131;6;14;452;19;8;1;14013;6;7;478;18;9;3;7401;6;9;500;14
10.03.21;17:45:00;1;1096;16741;0;2;68;11928;4;105;366;17;3;0;7184;6;0;565;18;4;34;10212;3;35;198;18;5;0;0;0;0;0;0;0;0;6;99;15568;4;66;79;461;434;27;7;31;14131;6;56;409;20;8;25;14013;6;46;441;19;9;6;7401;6;16;506;14
10.03.21;17:40:00;1;1213;16641;0;2;117;11922;4;157;378;18;3;65;7184;4;104;466;19;4;65;10209;3;67;197;19;5;0;0;0;0;0;0;0;0;6;140;15559;4;66;72;461;434;27;7;78;14129;4;118;422;20;8;79;14011;4;120;431;19;9;12;7401;6;19;540;15
10.03.21;17:35:00;1;782;16550;0;2;168;11912;4;210;378;18;3;98;7178;4;139;486;19;4;107;10204;3;111;217;19;5;0;0;0;0;0;0;0;0;6;180;15547;4;93;94;461;434;27;7;129;14122;4;172;444;20;8;134;14005;4;173;435;19;9;59;7400;6;82;502;15
10.03.21;17:30:00;1;662;16489;0;2;240;11898;4;284;386;19;3;143;7170;4;184;491;19;4;162;10195;5;168;227;19;5;0;0;0;0;0;0;0;0;6;231;15532;4;116;124;461;434;27;7;212;14111;4;258;449;20;8;215;13993;4;250;454;20;9;106;7395;4;137;505;16
10.03.21;17:25:00;1;392;16433;0;2;337;11878;4;383;376;19;3;194;7158;4;232;446;20;4;245;10181;5;255;231;20;5;0;0;0;0;0;0;0;0;6;308;15512;4;153;163;501;495;27;7;298;14093;4;353;470;21;8;291;13975;4;333;474;20;9;143;7386;4;177;517;16
10.03.21;17:20:00;1;393;16400;0;2;728;11848;4;784;366;20;3;425;7141;4;470;439;20;4;618;10160;5;643;242;20;5;0;0;0;0;0;0;0;0;6;469;15485;4;204;213;591;560;27;7;821;14068;4;879;480;21;8;601;13950;4;652;488;20;9;171;7374;4;206;550;17
10.03.21;17:15:00;1;403;16368;0;2;871;11788;4;931;367;21;3;514;7106;4;561;428;20;4;741;10108;5;772;243;21;5;0;0;0;0;0;0;0;0;6;540;15445;4;292;309;600;574;27;7;1015;13999;4;1075;486;21;8;621;13900;4;665;386;21;9;184;7360;4;221;562;17
10.03.21;17:10:00;1;462;16334;0;2;723;11715;4;779;381;21;3;430;7063;4;478;436;20;4;623;10046;5;648;245;21;5;0;0;0;0;0;0;0;0;6;499;15399;4;222;243;593;570;27;7;879;13915;4;933;474;21;8;614;13849;4;657;366;21;9;161;7344;4;199;558;17
10.03.21;17:05:00;1;453;16296;0;2;807;11654;4;868;386;22;3;458;7027;4;509;442;21;4;672;9994;5;699;243;21;5;0;0;0;0;0;0;0;0;6;577;15358;4;295;308;601;567;27;7;928;13841;4;993;478;22;8;737;13797;4;785;403;21;9;177;7331;4;216;559;18
10.03.21;17:00:00;1;445;16258;0;2;783;11587;4;844;405;22;3;412;6988;4;463;475;21;4;637;9938;5;663;244;22;5;0;0;0;0;0;0;0;0;6;652;15310;4;343;349;595;567;27;7;1052;13763;4;1108;486;22;8;901;13735;4;960;464;22;9;222;7316;4;262;566;18
10.03.21;16:55:00;1;580;16220;0;2;686;11522;4;745;408;23;3;407;6954;4;461;513;21;4;563;9885;5;587;241;22;5;0;0;0;0;0;0;0;0;6;693;15254;4;331;345;588;570;27;7;916;13676;4;974;474;23;8;891;13660;4;956;469;22;9;261;7297;4;303;547;19
10.03.21;16:50:00;1;635;16172;0;2;647;11464;4;705;406;24;3;403;6920;4;453;509;22;4;492;9837;5;512;240;23;5;0;0;0;0;0;0;0;0;6;726;15197;4;361;371;592;574;27;7;673;13601;4;715;481;23;8;639;13587;4;691;474;23;9;305;7275;4;350;535;19
10.03.21;16:45:00;1;642;16118;0;2;947;11410;4;1017;414;25;3;551;6886;4;611;520;22;4;736;9797;5;767;242;23;5;0;0;0;0;0;0;0;0;6;953;15135;4;500;505;592;572;28;7;1227;13545;4;1286;476;23;8;1187;13534;4;1261;493;23;9;406;7250;4;457;560;20
10.03.21;16:40:00;1;721;16064;0;2;677;11334;4;738;403;26;3;426;6841;4;479;504;22;4;509;9737;5;530;235;24;5;0;0;0;0;0;0;0;0;6;754;15056;4;391;397;589;567;28;7;700;13448;4;760;472;24;8;677;13440;4;733;466;24;9;320;7217;4;365;514;20
10.03.21;16:35:00;1;616;16006;0;2;1353;11277;4;1439;403;28;3;767;6806;4;827;461;23;4;1068;9695;5;1112;237;25;5;0;0;0;0;0;0;0;0;6;1257;14993;4;638;633;591;580;28;7;1486;13389;4;1570;503;24;8;1367;13384;4;1446;445;24;9;586;7190;4;636;441;21
10.03.21;16:30:00;1;718;15950;0;2;2607;11153;4;2744;405;29;3;1418;6736;4;1498;437;24;4;2066;9597;5;2152;242;26;5;0;0;0;0;0;0;0;0;6;2255;14873;4;1197;1157;608;584;28;7;2989;13256;4;3133;481;24;8;2950;13262;4;3095;477;24;9;1378;7138;4;1457;461;22
10.03.21;16:25:00;1;516;15893;0;2;3001;10936;4;3158;400;30;3;1627;6618;4;1716;434;24;4;2412;9424;5;2512;240;25;5;0;0;0;0;0;0;0;0;6;2831;14684;4;1461;1410;609;583;27;7;3359;13004;4;3523;474;24;8;3325;13014;4;3480;473;24;9;1639;7022;4;1736;490;23
10.03.21;16:20:00;1;428;15849;0;2;3378;10685;4;3552;401;29;3;1831;6482;4;1928;434;23;4;2714;9223;5;2827;245;25;5;0;0;0;0;0;0;0;0;6;3319;14440;4;1728;1661;610;586;27;7;3918;12721;4;4109;482;24;8;3876;12735;4;4059;477;24;9;2019;6885;4;2131;515;23
10.03.21;16:15:00;1;362;15812;0;2;3486;10403;4;3666;409;28;3;1849;6329;4;1945;434;23;4;2748;8996;5;2862;246;24;5;0;0;0;0;0;0;0;0;6;3457;14163;4;1795;1739;613;588;27;7;4029;12395;4;4216;480;23;8;3988;12411;4;4175;474;23;9;2119;6716;4;2238;518;23
10.03.21;16:10:00;1;513;15781;0;2;3002;10112;4;3156;410;26;3;1552;6174;4;1641;445;22;4;2195;8767;5;2286;244;23;5;0;0;0;0;0;0;0;0;6;2808;13875;4;1444;1397;625;579;27;7;3852;12058;4;4038;489;23;8;3824;12079;4;4007;488;23;9;2068;6539;4;2189;538;22
10.03.21;16:05:00;1;550;15740;0;2;2467;9860;4;2598;423;25;3;1317;6044;4;1398;453;22;4;1875;8583;5;1953;242;22;5;0;0;0;0;0;0;0;0;6;2437;13643;4;1264;1223;624;593;27;7;3565;11736;4;3734;494;23;8;3532;11759;4;3701;493;23;9;1896;6366;4;2011;546;21
10.03.21;16:00:00;1;563;15694;0;2;1398;9657;4;1486;417;23;3;751;5936;4;814;515;22;4;1101;8428;5;1147;241;22;5;0;0;0;0;0;0;0;0;6;1516;13441;4;771;747;606;576;27;7;1364;11438;4;1446;482;23;8;1394;11465;4;1471;480;23;9;724;6209;4;789;540;20
10.03.21;15:55:00;1;1158;15646;0;2;590;9540;4;648;412;24;3;370;5873;4;424;511;22;4;461;8335;5;480;237;23;5;0;0;0;0;0;0;0;0;6;778;13331;4;407;405;606;573;28;7;668;11322;4;719;477;24;8;650;11345;4;702;476;24;9;318;6147;4;362;535;20
10.03.21;15:50:00;1;660;15544;0;2;494;9491;4;548;405;25;3;309;5842;4;359;503;22;4;380;8297;5;396;236;23;5;0;0;0;0;0;0;0;0;6;698;13267;4;352;358;590;566;28;7;524;11267;4;581;465;25;8;508;11292;4;561;454;24;9;255;6120;4;297;517;21
10.03.21;15:45:00;1;371;15475;0;2;493;9449;4;545;401;27;3;304;5816;4;353;490;23;4;381;8265;5;397;235;24;5;0;0;0;0;0;0;0;0;6;703;13209;4;329;338;586;567;28;7;527;11223;4;577;448;25;8;513;11249;4;561;450;25;9;259;6099;4;300;515;22
10.03.21;15:40:00;1;389;15443;0;2;1036;9408;4;1111;415;29;3;580;5791;4;635;497;24;4;817;8233;5;851;235;26;5;0;0;0;0;0;0;0;0;6;1288;13147;4;667;659;599;561;28;7;944;11178;4;999;447;26;8;915;11206;4;976;454;26;9;483;6077;4;534;518;23
10.03.21;15:35:00;1;330;15410;0;2;2011;9322;4;2131;413;31;3;1115;5743;4;1190;479;25;4;1641;8165;5;1709;242;27;5;0;0;0;0;0;0;0;0;6;2406;13041;4;1255;1224;603;576;28;7;2741;11100;4;2876;457;26;8;2645;11130;4;2778;480;26;9;1493;6037;4;1593;541;25
10.03.21;15:30:00;1;447;15382;0;2;2642;9150;4;2785;404;31;3;1531;5645;4;1624;501;25;4;2341;8021;5;2439;240;27;5;0;0;0;0;0;0;0;0;6;3311;12805;4;1705;1656;608;588;28;7;4086;10856;4;4286;466;26;8;4129;10896;4;4326;470;26;9;2136;5904;4;2269;534;25
10.03.21;15:25:00;1;338;15344;0;2;2052;8928;4;2167;401;32;3;1146;5516;4;1224;489;25;4;1743;7825;5;1816;237;27;5;0;0;0;0;0;0;0;0;6;2576;12557;4;1310;1303;582;566;28;7;2581;10515;4;2704;464;26;8;2613;10550;4;2749;457;26;9;1367;5726;4;1462;535;25
10.03.21;15:20:00;1;366;15317;0;2;3724;8743;4;3919;396;33;3;2097;5413;4;2209;465;25;4;3078;7668;5;3206;240;27;5;0;0;0;0;0;0;0;0;6;4250;12331;4;2201;2122;608;585;28;7;4594;10281;4;4817;472;26;8;4557;10314;4;4779;461;26;9;2460;5602;4;2600;518;25
10.03.21;15:15:00;1;377;15286;0;2;3562;8431;4;3750;407;32;3;2065;5238;4;2173;448;25;4;2994;7411;5;3119;241;27;5;0;0;0;0;0;0;0;0;6;3935;11982;4;2039;1939;610;565;28;7;4370;9898;4;4585;468;26;8;4327;9936;4;4528;465;25;9;2363;5397;4;2497;511;25
10.03.21;15:10:00;1;382;15253;0;2;3178;8130;4;3352;409;31;3;1826;5063;4;1925;439;24;4;2682;7158;5;2794;235;26;5;0;0;0;0;0;0;0;0;6;3460;11639;4;1805;1733;599;566;28;7;4687;9535;4;4912;461;25;8;4612;9575;4;4836;453;25;9;2520;5200;4;2669;521;25
10.03.21;15:05:00;1;307;15219;0;2;4076;7855;4;4286;400;31;3;2358;4905;4;2482;456;24;4;3499;6927;5;3645;241;25;5;0;0;0;0;0;0;0;0;6;4748;11336;4;2467;2371;605;582;27;7;5020;9141;4;5261;467;24;8;4935;9188;4;5175;465;24;9;2156;4988;4;2281;417;19
10.03.21;15:00:00;1;310;15193;0;2;4193;7519;4;4413;411;29;3;2394;4710;4;2517;447;24;4;3596;6638;5;3745;241;24;5;0;0;0;0;0;0;0;0;6;4830;10974;4;2508;2407;614;587;27;7;4762;8724;4;4992;469;24;8;4677;8779;4;4905;456;23;9;2523;4763;4;2673;514;23
10.03.21;14:55:00;1;333;15167;0;2;3388;7169;4;3567;410;28;3;1894;4511;4;2006;499;23;4;2785;6338;5;2902;241;23;5;0;0;0;0;0;0;0;0;6;3548;10587;4;1808;1776;601;574;27;7;4350;8335;4;4562;473;23;8;4666;8397;4;4892;461;22;9;2651;4557;4;2794;484;23
10.03.21;14:50:00;1;360;15139;0;2;2651;6903;4;2791;404;27;3;1621;4360;4;1720;498;23;4;2270;6122;5;2365;238;23;5;0;0;0;0;0;0;0;0;6;3506;10261;4;1814;1738;600;581;27;7;3857;7987;4;4046;488;22;8;3897;8015;4;4079;432;22;9;2170;4336;4;2296;485;22
10.03.21;14:45:00;1;402;15109;0;2;3308;6681;4;3487;415;27;3;2009;4224;4;2124;501;23;4;3088;5932;5;3217;237;22;5;0;0;0;0;0;0;0;0;6;4009;9981;4;2085;1955;601;585;26;7;4909;7664;4;5145;472;21;8;4859;7689;4;5091;456;20;9;2603;4155;4;2753;515;22
10.03.21;14:40:00;1;510;15076;0;2;3494;6381;4;3680;414;24;3;1898;4046;4;2012;543;22;4;3153;5656;5;3284;243;20;5;0;0;0;0;0;0;0;0;6;4665;9585;4;2422;2324;613;581;26;7;5648;7233;4;5956;471;20;8;5554;7268;4;5832;481;19;9;3046;3936;4;3231;537;20
10.03.21;14:35:00;1;420;15037;0;2;2983;6088;4;3140;404;24;3;1889;3887;4;2004;510;22;4;2695;5391;5;2807;242;20;5;0;0;0;0;0;0;0;0;6;3814;9217;4;1952;1925;603;593;26;7;3058;6762;4;3208;482;19;8;3048;6804;4;3204;483;19;9;1648;3681;4;1753;546;19
10.03.21;14:30:00;1;485;15003;0;2;2573;5835;4;2712;421;21;3;1699;3721;4;1804;535;21;4;2328;5154;5;2426;244;18;5;0;0;0;0;0;0;0;0;6;3520;8880;4;1801;1738;608;587;26;7;3746;6508;4;3932;500;19;8;3636;6552;4;3817;496;18;9;2008;3545;4;2131;554;18
10.03.21;14:25:00;1;498;14962;0;2;1882;5610;4;1986;418;20;3;1212;3574;4;1295;535;21;4;1654;4950;5;1723;247;18;5;0;0;0;0;0;0;0;0;6;2554;8584;4;1309;1288;620;581;25;7;2402;6192;4;2518;487;18;8;2365;6241;4;2482;482;18;9;1307;3373;4;1396;541;17
10.03.21;14:20:00;1;469;14921;0;2;1826;5454;4;1928;422;20;3;1168;3474;4;1250;534;20;4;1608;4814;5;1675;245;17;5;0;0;0;0;0;0;0;0;6;2563;8365;4;1344;1310;606;584;25;7;2281;5996;4;2396;487;18;8;2298;6047;4;2411;488;18;9;1226;3266;4;1313;536;17
10.03.21;14:15:00;1;410;14880;0;2;1870;5302;4;1974;419;19;3;1222;3377;4;1308;528;20;4;1705;4679;5;1775;247;17;5;0;0;0;0;0;0;0;0;6;2715;8149;4;1394;1350;613;583;25;7;2159;5808;4;2272;493;18;8;2154;5857;4;2258;485;18;9;1174;3164;4;1252;538;17